Погода в Атамановке

Россия / Волгоградская область     50°10′11″N   44°04′05″E
темп.,
°C
ветер,
м/с
пор.,
м/с
влажн.,
%
обл.,
%
осадки,
мм/ч
давл.,
гПа
погр.,
м
17 апреля, сб
сб1700:00+13зсз2255100 0.1 101811
03:00+11зюз2363100 0.2 101941
06:00+11ссз116633 0.0 101810
09:00+14ююз4557100 0.1 1018461
12:00+12юз5780100 0.8 1020641
15:00+10ююз2487100 7.8 1021259
18:00+11сз23741 1.3 1020444
21:00+8юз01820 1.3 102010
18 апреля, вс
вс1800:00+7юз11851 0.0 102110
03:00+7з11880 0.0 102111
06:00+6зсз35885 0.0 1021107
09:00+11зсз345869 0.0 1021594
12:00+14сз444480 0.0 10201364
15:00+15сз3441100 0.0 10201615
18:00+14ссз225147 0.0 102055
21:00+10ссв336336 0.0 102030
19 апреля, пн
пн1900:00+9ссв2266100 0.0 102025
03:00+8св3475100 0.0 102074
06:00+9всв357690 0.0 1019111
09:00+13вюв3464100 0.0 1019599
12:00+14юв4554100 0.1 10181780
15:00+11св1278100 1.0 1018147
18:00+11всв51084100 0.9 1018423
21:00+11в71382100 1.0 1018598
20 апреля, вт
вт2000:00+10в61386100 0.3 1017565
03:00+9в81587100 0.6 1016532
06:00+8в91785100 0.4 1016558
09:00+9в111989100 1.8 1014695
12:00+9вюв112088100 3.9 1014795
15:00+11вюв112085100 4.4 1012948
18:00+13юв112077100 0.1 1012966
21:00+13юв101974100 0.7 1011851
21 апреля, ср
ср2100:00+12ююв101691100 3.1 1012715
03:00+11ююв81592100 4.2 1013716
06:00+11ю81386100 0.1 1014891
09:00+11ююз71174100 0.3 10171022
12:00+12ююз687299 0.1 10181051
15:00+13юз566798 0.2 10201017
18:00+12ююз247040 0.0 1020125
21:00+10ююв2278100 0.0 102217